Weather in Sheremetyevo International Airport

Russia / Moscow Oblast     55°58′00″N   37°24′56″E
temp.,
°C
wind,
m/s
gust,
m/s
humid.,
%
clouds,
%
prec.,
mm/h
press.,
hPa
HPBL,
m
19 january, wed
wed1900:00−11nw4119372 0.0 1017312
03:00−13nw4109673 0.0 1018205
06:00−14nw3896100 0.0 1018136
09:00−16wnw259826 0.0 101858
12:00−9wsw358753 0.0 1017158
15:00−8ssw388961 0.0 1015252
18:00−10ssw4109286 0.0 1014229
21:00−9ssw41296100 0.1 1012291
20 january, thu
thu2000:00−8ssw41196100 0.1 1010301
03:00−6ssw51295100 0.1 1009413
06:00−5ssw51395100 0.1 1006451
09:00−4ssw51294100 0.1 1005571
12:00−3s61493100 0.1 1004629
15:00−3s61593100 0.1 1002711
18:00−4s71493100 0.1 1001656
21:00−5s61495100 0.5 1001676
21 january, fri
fri2100:00−5s61394100 0.9 1000651
03:00−4s51296100 2.1 1001597
06:00−4s51095100 0.4 1000570
09:00−4sse4896100 0.6 1001436
12:00−5se4896100 0.5 1001370
15:00−6se4896100 1.6 1000490
18:00−7ese4995100 0.9 999428
21:00−7ese4995100 1.3 1000330
22 january, sat
sat2200:00−7ese3896100 0.6 1001310
03:00−8ese369799 0.8 1002159
06:00−14ese269994 0.1 100594
09:00−13e399796 0.1 1008180
12:00−8ese499398 0.1 1010345
15:00−8ese4894100 0.2 1012397
18:00−9ese4109698 0.1 1015285
21:00−11ene369899 0.1 1018128
23 january, sun
sun2300:00−14ene249990 0.1 102166
03:00−16ene24100100 0.1 102353
06:00−19nne22100100 0.0 102516
09:00−17ne239993 0.1 102856
12:00−11ne119492 0.1 1029137
15:00−9n239495 0.1 1030190
18:00−16n2410084 0.0 103245
21:00−18n2210097 0.0 103530